map of HHQ home
Great Circle Mapper logo
HHQ - Airport
Location
City:  Hua Hin, Phetchaburi, Thailand
ICAO:VTPH
IATA:HHQ

Details
Type:Airport (Aerodrome, Airfield)
Use:Public/Civil
Latitude:12°38'10"N (12.636225)
Longitude:99°57'06"E (99.951533)
Datum:WGS 1984
Elevation:62 ft (19 m)
Variation:0.54°W (WMM2015 magnetic declination)
0.01° annual change
Runways:1
Longest:6890 × 115 ft (2100 × 35 m), paved

Time
Time Zone:UTC+7
Local Time:

Weather
METAR:VTPH 251200Z 23004KT 160V300 9999 SCT030 32/23 Q1004
TAF:VTPH 251100Z 2512/2612 24005KT 9999 FEW030
BECMG 2514/2516 00000KT
BECMG 2602/2604 25005KT SCT028
BECMG 2610/2612 FEW030

Related Locations
Nearby:
Farthest:LIM: 12246 mi / 19708 km
Lima (Callao) [Jorge Chávez Intl], CAL, PE

Find:

   beyond  
but within

Other Information
Maps:
NOTAMs:
Links:
Sources:

  
flag of Thailand   

Sectional Chart

Flight Planning
at skyvector.com

Satellite Image

Google Maps Satellite view

 

Copyright © 2004-2016 Karl L. Swartz. All rights reserved.
The Great Circle Mapper name and logo are trademarks of the Great Circle Mapper.
All other trademarks mentioned herein belong to their respective owners.
Please see credits for attibutions and further copyright information.

  Follow gcmap on Facebook Follow gcmap on Twitter Follow gcmap on Google+ GCmap on LinkedIn

hCard Microformat

Geo Microformat